Theta_e
348 348 350 350 351 350 350 351 351 352 351 351 351 351 352 352 351 351 351 351 351 351 350 349 348 347 345 344 343 340 339 339 338 337 336 336 335 336 335 335 336 335 335 335 336 334 334 333 332 333 331 331 330 331 330 330 330 330 330 328 326 325 324 322 320 322 323 324 326 327 328 330 328 326 328 327 328 328 336 334 334 334 333 333 334
348 349 349 350 349 350 350 351 352 352 351 351 351 351 352 352 352 352 351 351 351 350 350 349 348 347 345 343 343 341 339 339 339 338 336 336 334 336 335 334 335 335 335 334 335 335 334 332 332 332 331 332 331 330 331 330 330 328 327 329 327 328 327 325 322 320 323 322 324 325 326 329 328 325 327 328 328 329 328 328 331 332 333 333 333
350 350 350 350 349 350 350 351 351 351 351 351 351 352 352 352 353 352 351 351 351 351 350 348 347 346 345 343 342 341 340 339 339 339 337 336 335 334 335 334 334 334 334 335 335 335 334 333 333 332 333 331 331 331 331 331 331 331 330 330 329 328 329 328 325 323 323 325 324 324 325 326 328 329 328 329 330 328 327 328 329 330 332 332 331
350 351 351 350 350 350 350 351 351 351 351 352 352 352 352 353 354 352 352 352 351 351 350 349 347 345 344 343 341 341 340 339 338 339 338 337 336 335 334 334 334 334 335 335 335 335 335 333 333 333 333 332 331 330 330 331 331 331 330 330 330 329 329 330 329 328 326 325 325 327 325 324 326 328 329 330 329 328 328 329 329 328 328 330 330
349 350 351 351 351 350 350 350 350 351 351 352 352 353 353 353 353 353 352 352 351 351 350 349 347 345 344 343 341 340 340 339 338 338 339 339 337 336 335 334 334 334 335 335 339 335 335 334 334 333 333 332 331 331 330 330 331 330 330 330 330 331 331 331 330 329 327 326 326 324 323 324 326 326 327 327 328 327 328 328 329 329 329 329 330
350 350 351 351 351 351 351 350 350 351 352 352 353 353 354 353 353 353 353 352 352 351 350 348 347 345 345 344 342 340 340 340 339 339 339 339 338 337 336 335 334 334 335 335 336 336 336 335 334 334 333 332 331 331 331 331 330 330 329 329 330 330 329 329 330 329 329 329 327 327 323 325 324 326 327 328 327 326 327 328 328 328 328 328 329
350 350 350 350 351 351 351 351 351 351 352 352 353 353 353 354 353 353 354 353 352 351 350 348 348 347 345 344 343 342 340 340 339 339 339 338 338 337 336 335 335 335 335 335 335 336 336 335 335 335 334 333 332 331 331 330 331 330 331 330 330 329 329 329 329 328 329 328 327 326 327 327 327 327 328 328 328 327 326 325 325 328 328 327 327
349 350 350 350 350 351 352 352 353 353 353 353 353 353 354 354 354 354 354 353 353 352 351 349 348 347 346 345 344 343 341 340 339 339 339 339 338 337 337 336 336 335 335 335 335 335 336 336 336 335 335 334 333 332 331 331 331 331 331 331 330 329 329 328 327 328 328 327 326 326 326 327 326 327 328 326 325 325 326 325 324 325 327 327 327
349 350 350 350 350 351 352 353 354 354 354 353 353 353 353 353 354 354 354 353 354 353 352 351 348 346 346 345 344 343 342 341 340 339 339 338 338 337 337 337 336 335 335 335 335 335 335 336 335 335 336 340 338 336 335 335 332 331 331 331 331 329 329 328 328 326 326 326 326 326 325 326 326 326 325 323 324 325 326 326 325 326 327 327 328
349 349 350 350 351 352 352 353 353 354 354 353 353 353 353 353 353 353 353 354 353 353 352 351 350 347 345 344 344 343 343 342 336 328 331 339 338 338 338 337 336 336 336 335 335 335 335 335 337 342 343 344 340 333 328 329 332 334 333 332 332 330 329 328 327 327 327 326 326 327 326 326 327 327 327 327 328 326 324 323 322 324 324 324 325
349 350 350 351 352 352 352 353 353 353 353 353 353 353 353 353 353 353 353 353 353 353 353 351 349 348 346 345 343 343 343 342 330 326 328 331 338 338 338 337 337 337 336 335 335 335 335 335 335 341 344 344 342 335 331 329 329 329 331 332 334 333 330 329 329 330 329 328 329 328 327 327 328 328 328 328 328 327 325 325 324 323 321 320 319
349 350 351 352 352 352 353 353 353 353 353 353 353 353 353 353 352 352 352 352 352 353 352 351 350 349 348 346 344 343 343 333 326 325 327 327 332 340 338 337 338 337 336 336 335 335 335 334 334 335 339 339 339 339 335 331 328 328 328 328 329 332 333 334 332 330 329 328 328 328 328 327 328 328 328 326 326 326 326 325 323 322 320 319 318
350 350 351 352 353 353 353 353 353 353 353 353 353 353 353 352 352 351 351 352 352 352 351 351 350 349 348 346 345 344 343 331 325 324 325 325 328 335 339 339 338 337 337 336 335 334 333 333 333 334 337 346 344 338 336 336 331 329 328 329 328 328 327 328 330 335 333 330 329 329 329 328 327 328 329 327 326 323 323 321 321 321 322 320 321
350 350 351 352 353 353 353 353 352 353 353 353 353 353 352 352 352 352 352 352 351 351 351 351 351 350 349 347 346 345 344 329 323 322 322 323 326 334 339 338 338 337 337 336 335 333 332 332 332 333 333 338 338 334 333 331 330 330 330 330 330 332 328 324 324 325 329 332 331 329 331 330 328 329 331 329 325 324 322 321 322 323 323 322 323
348 350 351 352 353 354 353 353 353 353 353 353 353 352 352 352 351 352 351 351 350 350 350 350 351 350 350 349 347 346 346 326 320 320 320 320 324 329 340 338 337 336 337 336 335 334 333 333 333 333 333 334 335 335 332 330 329 330 330 330 330 331 331 332 329 328 328 328 329 329 330 330 330 329 329 328 327 326 325 324 324 324 323 321 321
346 348 349 351 353 354 354 353 353 353 353 353 352 352 352 351 351 351 351 351 351 351 351 351 350 350 350 349 348 346 346 322 319 319 318 318 324 336 338 337 336 336 335 335 335 334 334 334 333 333 334 334 335 333 335 332 330 329 328 328 328 329 330 332 329 331 333 330 329 329 330 330 328 331 330 326 324 324 326 325 323 322 321 320 320
345 346 348 350 352 354 354 354 353 353 353 352 352 352 351 351 352 352 350 350 349 349 349 350 351 350 350 349 347 347 346 325 318 316 316 317 324 338 337 336 335 335 335 334 334 334 334 334 334 333 333 332 330 324 327 333 329 328 327 327 327 327 329 333 327 324 324 323 322 323 322 321 320 319 317 318 323 323 320 318 319 318 317 317 319
344 345 347 349 351 353 354 354 353 353 353 352 352 352 353 353 352 352 351 350 349 349 350 350 350 350 349 349 348 347 346 326 314 314 314 316 325 337 337 336 336 335 334 334 334 334 336 342 340 334 333 332 325 321 323 331 328 327 326 325 325 326 328 332 333 330 323 319 318 318 318 318 319 319 319 318 317 322 322 319 318 315 316 316 315
343 344 345 348 350 352 354 354 354 353 353 353 353 352 352 352 353 353 352 352 351 351 350 350 349 350 350 349 339 344 347 328 313 313 313 315 329 336 336 336 334 334 333 332 332 333 333 341 343 334 332 329 320 319 320 326 328 326 324 323 324 325 327 327 326 325 324 325 325 326 325 321 322 320 325 321 318 321 322 322 320 317 317 316 316
344 345 345 347 350 352 353 354 354 354 353 353 354 353 354 353 353 353 352 352 351 351 350 350 349 349 349 349 348 346 345 331 320 312 312 314 324 336 337 335 333 332 332 331 330 330 331 335 336 324 322 321 317 315 316 319 327 325 326 325 325 324 324 324 324 323 322 323 321 324 323 321 320 321 321 322 325 328 322 321 320 319 317 316 317
345 345 345 346 348 351 353 354 354 355 355 354 354 354 354 353 353 353 352 352 352 351 350 349 349 349 348 348 348 345 342 329 321 312 311 314 321 326 334 335 334 333 331 331 330 329 329 332 335 324 317 316 314 312 312 313 323 326 326 325 325 323 322 321 325 334 320 322 322 321 319 319 317 316 318 317 320 322 322 320 322 320 318 317 316
345 345 345 345 347 349 351 354 355 355 355 355 354 353 354 354 353 353 353 352 351 350 349 348 348 348 346 346 346 344 335 325 326 314 312 314 318 322 333 334 334 333 331 330 329 328 329 330 332 326 316 315 313 308 307 309 316 325 323 317 316 320 322 322 322 321 320 318 316 317 316 315 314 315 316 318 320 322 321 319 321 320 320 320 319
345 345 345 345 346 348 350 352 353 355 355 355 354 353 353 353 353 353 352 351 350 349 348 347 346 344 341 341 341 340 334 329 321 321 311 312 314 319 323 329 326 334 331 329 328 329 329 330 330 326 315 310 307 306 306 307 314 317 310 310 312 315 325 320 320 317 315 315 315 313 313 312 313 313 315 316 318 317 318 317 317 319 321 323 321
346 346 345 345 346 347 349 351 353 355 355 354 354 353 353 352 352 352 352 351 349 348 346 344 343 341 339 337 337 336 334 332 321 318 316 311 312 314 316 319 320 330 330 328 328 328 327 327 325 313 306 302 303 305 306 309 318 307 307 311 314 320 320 320 315 314 315 314 313 312 312 311 311 311 314 317 317 315 316 315 313 313 312 313 312
345 345 345 345 346 347 348 350 352 354 355 355 353 352 352 352 351 352 351 350 349 347 344 341 341 339 337 336 334 333 334 333 329 322 317 313 311 312 313 314 315 318 327 327 328 327 321 313 304 303 304 303 305 306 308 310 308 305 307 312 321 318 317 314 312 313 311 312 312 311 312 314 314 314 315 313 316 316 315 313 312 311 311 311 311
346 345 345 345 346 347 347 349 352 354 354 355 354 354 352 351 351 351 350 349 348 346 340 339 338 337 336 335 333 333 332 331 327 324 321 316 314 312 314 314 317 321 326 327 323 316 309 306 306 306 307 310 316 319 319 315 310 312 313 318 318 316 315 312 311 312 312 311 312 312 312 311 312 311 314 315 312 310 310 310 309 311 310 310 310
347 347 346 346 347 348 348 350 351 353 354 355 355 354 353 353 351 349 349 348 346 343 339 337 337 336 335 334 333 332 331 329 326 323 322 320 320 318 318 320 320 321 323 321 319 317 314 315 315 313 314 316 320 320 317 313 314 314 316 317 316 315 314 312 312 312 312 310 311 311 310 310 311 314 312 311 310 309 309 312 309 307 310 307 305
349 349 349 349 349 350 350 354 353 352 353 354 353 352 352 353 351 349 348 348 344 341 339 337 336 336 335 334 333 331 329 327 325 323 321 321 321 319 322 324 325 326 322 318 318 320 318 315 314 318 318 318 317 316 315 315 314 314 313 313 313 314 317 319 319 311 309 311 309 310 313 312 310 309 311 310 307 308 310 311 310 307 308 305 300
349 349 350 350 350 350 351 350 351 351 352 347 327 330 350 351 350 345 334 347 347 343 340 339 338 338 336 334 332 329 328 326 326 317 322 316 319 320 322 324 325 325 322 315 320 319 317 318 318 316 317 317 315 314 313 314 315 313 313 312 312 311 312 312 314 314 311 310 311 311 311 309 309 310 310 307 307 307 306 305 305 304 303 300 300
344 345 346 347 348 348 349 350 350 348 340 327 321 313 308 307 328 339 333 326 323 322 322 335 338 338 336 335 335 332 329 331 316 309 307 307 308 311 313 313 313 319 313 314 321 319 318 318 318 318 316 316 315 314 314 314 315 313 313 314 312 311 311 313 313 312 311 312 310 310 309 309 307 306 305 306 305 305 303 307 302 303 301 298 299
339 337 337 335 335 335 333 334 339 337 334 330 323 319 318 308 299 307 320 323 320 314 314 315 316 323 333 332 320 311 316 309 305 304 303 304 304 305 305 305 305 304 307 320 322 320 318 319 318 318 318 317 317 316 315 314 314 313 313 313 312 313 314 313 312 310 311 311 312 310 308 307 305 303 303 306 306 304 302 303 303 302 299 300 298
333 334 333 332 332 330 329 328 328 329 329 331 332 330 325 319 310 299 303 308 306 304 306 308 309 311 316 321 320 317 308 304 303 302 303 302 302 301 301 301 301 303 306 313 322 320 320 320 318 318 317 317 318 318 317 315 315 314 313 312 313 315 314 314 311 312 311 309 308 306 305 303 302 302 303 303 305 301 299 300 299 299 301 300 300
331 330 330 332 332 331 329 328 328 329 329 328 328 329 326 323 317 311 305 298 299 300 300 300 301 304 306 306 309 309 306 303 302 301 301 300 300 299 299 299 300 302 308 320 321 320 319 319 319 318 317 318 317 317 317 317 316 315 314 314 314 314 315 312 309 310 309 307 307 304 304 303 303 304 305 304 301 297 299 299 298 299 299 297 298
333 332 331 330 328 328 328 328 329 330 330 330 330 329 327 326 324 323 322 321 317 306 299 297 298 300 298 298 299 299 300 300 300 299 299 299 299 298 300 302 298 301 313 322 320 319 319 319 318 317 317 317 317 317 316 316 316 314 314 313 312 312 311 309 309 308 306 306 302 304 304 303 304 301 299 299 299 299 298 298 298 297 296 296 296
336 337 337 334 329 329 329 329 329 329 330 330 329 328 327 329 328 329 329 328 324 318 315 309 299 296 303 300 296 297 298 298 298 298 298 298 299 299 303 313 315 315 314 316 319 318 318 318 317 316 315 315 314 314 314 312 312 314 314 312 308 305 304 305 305 305 304 303 303 303 304 304 302 302 301 299 298 297 297 298 297 297 295 296 297
333 332 332 333 331 330 330 329 328 328 327 328 329 329 329 330 329 327 324 322 317 312 308 304 304 303 297 295 295 296 296 298 298 298 298 298 299 306 319 318 318 318 318 316 317 317 317 316 315 312 310 309 311 310 310 311 312 311 309 308 306 305 304 303 304 303 305 304 304 304 304 303 302 301 298 297 297 298 297 297 297 298 299 297 298
333 333 332 332 332 331 330 328 327 327 326 326 327 327 327 326 326 324 321 318 315 312 308 308 309 310 308 307 301 296 296 297 297 297 298 299 302 317 321 319 318 317 317 315 315 314 314 313 312 310 310 309 308 308 308 308 308 308 308 306 305 304 302 302 303 305 301 302 303 302 300 298 297 298 297 297 298 296 296 298 298 299 300 301 303
334 335 333 333 332 330 328 327 327 327 327 327 327 326 326 324 323 321 319 317 315 313 311 313 315 312 310 307 311 307 302 298 299 300 300 301 309 316 317 318 317 316 315 314 315 315 313 310 309 310 309 309 308 308 307 307 306 307 307 305 305 304 309 306 308 302 301 300 299 298 300 298 297 297 300 296 295 295 296 299 296 295 297 299 298
330 324 324 326 328 330 329 328 327 327 326 326 326 326 325 323 321 319 317 316 315 315 315 315 314 312 309 309 307 309 312 314 316 314 314 315 315 313 314 314 314 313 314 314 318 315 312 310 310 309 309 308 308 306 306 306 305 305 304 304 303 302 305 301 302 300 301 300 300 298 298 297 297 295 296 294 295 295 295 296 296 296 295 295 295
331 330 327 326 329 328 329 329 328 327 326 325 325 325 324 322 320 318 317 316 315 315 316 316 314 311 310 310 310 315 318 317 317 316 315 314 314 311 312 313 313 314 314 314 314 313 312 310 310 309 307 306 306 305 305 305 305 304 303 303 303 303 302 301 300 299 300 300 298 299 298 298 296 296 294 294 295 294 295 296 297 297 296 295 296
330 330 332 327 327 329 331 329 327 326 326 326 325 324 323 322 320 319 318 317 317 316 316 315 313 311 310 308 305 310 319 317 315 315 314 313 312 311 311 313 313 313 314 314 313 312 311 310 308 308 307 306 306 307 305 305 305 304 303 303 303 302 301 299 298 299 298 299 298 298 297 297 297 294 295 297 302 297 296 297 296 296 297 297 297
328 327 328 327 328 329 329 329 328 330 328 327 325 324 324 322 320 319 319 318 318 317 316 314 312 311 306 302 300 301 312 314 313 313 312 312 312 311 312 312 312 313 314 314 313 312 310 310 308 307 307 307 307 306 305 304 304 303 303 302 302 301 301 300 299 299 299 298 297 296 296 297 298 298 298 301 294 294 296 296 295 296 295 296 297
330 329 329 330 328 327 328 328 327 326 326 326 326 328 325 321 321 321 320 319 318 317 315 312 310 309 307 303 303 304 311 312 316 312 312 312 311 312 311 310 310 311 313 313 313 312 311 310 308 307 308 307 307 307 305 304 303 302 301 301 301 301 300 300 299 299 297 297 296 299 298 298 299 296 296 299 294 296 295 296 297 296 296 295 296
328 329 329 329 329 328 328 327 326 326 326 328 328 326 325 323 322 322 320 319 319 318 316 313 311 310 308 305 303 307 312 312 312 312 312 313 311 311 311 309 310 310 311 311 311 311 311 310 309 308 306 306 305 305 304 303 303 302 300 300 301 300 298 299 299 297 297 296 297 298 297 297 297 296 298 298 293 296 296 297 297 297 297 296 296
327 327 327 326 326 326 325 326 326 326 328 327 326 326 326 323 322 321 320 319 320 318 317 315 313 311 309 307 308 310 312 313 314 313 313 312 312 311 311 310 310 310 310 310 310 310 310 309 308 306 304 302 302 302 301 301 300 300 299 299 300 300 297 298 298 297 297 298 298 296 295 295 291 291 294 295 297 295 297 296 296 301 297 296 296
326 325 324 322 322 322 323 324 325 323 323 323 324 323 323 323 321 322 321 320 319 318 316 314 313 312 311 309 309 310 311 312 313 313 313 312 312 311 311 311 310 310 310 310 309 308 308 308 307 306 304 302 300 299 298 299 298 298 297 298 299 299 297 297 297 298 297 296 295 294 296 293 291 293 300 294 295 295 293 295 296 297 296 296 296
325 324 323 322 322 322 322 322 322 321 321 321 321 323 322 321 321 321 322 321 319 318 316 315 313 312 311 311 310 310 311 312 313 313 313 312 311 310 310 309 310 309 309 308 308 308 308 308 308 306 304 302 300 299 298 296 296 296 297 295 294 295 295 296 298 297 295 294 294 292 293 294 294 297 301 300 296 296 298 296 297 297 297 297 296
325 324 323 323 322 322 322 322 323 324 320 319 320 321 320 320 321 321 320 320 319 318 316 315 313 312 312 311 311 310 311 311 313 312 312 312 311 310 310 309 309 308 308 307 307 307 308 307 306 304 303 302 301 299 297 296 295 295 294 294 295 294 295 296 293 292 291 292 290 290 291 291 292 292 295 294 292 295 295 295 297 297 298 299 299
324 323 322 322 323 322 321 321 321 319 319 318 319 320 319 320 320 321 320 319 319 317 316 314 313 312 312 312 312 311 312 313 311 310 310 311 311 310 310 308 308 307 308 308 307 307 307 306 305 304 303 302 301 299 298 297 295 295 294 292 294 296 292 294 292 290 291 293 291 291 290 290 291 293 295 295 294 294 295 295 295 298 298 299 299
322 323 322 322 321 319 321 320 318 317 317 318 319 318 318 319 318 319 318 318 317 316 316 315 314 314 313 313 312 312 312 312 312 310 309 310 310 310 309 308 307 307 307 307 306 306 306 305 304 303 302 301 300 299 298 297 295 295 293 293 294 291 289 290 291 292 292 289 289 289 289 289 289 290 291 292 293 294 294 295 297 298 298 297 297
321 320 319 319 318 317 317 315 314 313 314 315 316 316 316 316 316 317 316 316 316 316 316 316 316 315 314 314 315 313 313 312 312 310 310 310 310 309 309 308 307 306 305 305 306 306 305 304 303 303 302 302 300 298 297 296 295 294 294 293 292 291 290 291 291 290 292 289 286 288 289 290 290 290 290 290 288 289 296 299 299 298 297 297 298
Wind_Speed
17 16 14 15 15 16 15 14 15 13 13 13 13 13 12 12 11 11 8 10 10 11 11 11 11 11 11 11 10 9 9 9 8 8 8 8 7 7 6 8 8 7 7 7 5 5 5 5 5 5 4 5 5 5 4 4 3 4 4 5 5 3 4 4 3 5 3 3 3 3 2 1 3 2 3 3 4 4 3 4 4 4 5 6 6
17 16 15 15 17 16 16 14 14 13 14 14 14 13 13 12 11 9 11 11 10 11 12 11 11 11 11 11 10 10 10 10 9 8 9 9 8 6 7 8 8 7 6 7 6 5 5 5 5 5 5 6 5 5 5 5 4 4 3 5 5 5 4 4 4 2 5 1 2 2 2 3 3 2 3 4 5 3 3 4 3 4 5 5 6
17 16 16 16 17 16 15 15 14 15 16 14 15 14 13 12 11 12 12 10 10 11 11 11 11 11 11 11 10 10 11 10 9 9 10 10 10 9 7 8 8 8 9 9 8 6 6 6 7 6 5 5 5 5 4 5 4 5 5 4 5 5 5 5 4 4 5 6 3 2 3 3 4 5 3 4 4 3 4 4 4 4 4 5 6
16 16 16 16 16 16 16 15 16 16 16 15 16 15 14 12 11 12 11 10 11 10 10 11 11 11 12 11 11 11 11 10 10 10 11 11 10 10 8 7 8 9 10 9 8 8 9 7 7 6 5 6 5 5 5 4 5 5 4 4 5 5 5 5 5 5 5 5 3 3 3 2 4 4 4 3 4 4 4 5 4 4 4 4 6
16 16 16 16 16 16 16 15 16 17 17 15 17 16 14 13 11 12 11 11 11 10 10 10 11 12 12 13 12 11 11 11 11 11 11 10 10 9 9 8 9 9 10 9 9 9 9 9 8 6 6 7 5 5 5 5 5 5 6 5 5 5 4 5 6 5 5 6 5 3 2 2 3 4 3 4 4 3 3 4 5 5 5 5 4
16 16 16 16 16 17 16 16 17 17 17 16 16 16 14 13 12 11 12 13 11 11 11 10 11 13 12 12 12 12 11 12 12 12 12 10 9 8 8 9 10 10 10 9 9 8 9 9 7 8 8 8 6 5 5 6 5 6 5 5 5 4 5 4 5 5 6 7 6 6 3 5 4 4 4 4 5 6 6 6 5 4 4 7 7
16 16 16 17 16 17 17 17 16 16 16 16 14 14 14 14 13 13 12 13 12 12 12 12 11 12 13 12 12 12 12 11 12 12 11 10 9 9 9 10 10 10 8 7 7 8 9 8 8 9 9 8 7 7 7 6 6 7 7 6 5 5 5 6 5 5 6 6 5 6 6 5 4 6 5 3 3 3 5 6 6 5 3 4 7
16 17 17 17 17 18 17 15 15 15 15 14 14 14 14 14 14 13 12 13 13 13 13 13 12 11 12 12 12 11 11 12 12 11 11 10 9 9 10 11 11 9 6 6 8 8 9 8 8 8 8 8 8 7 7 7 6 6 6 5 5 5 6 6 4 5 5 5 6 6 5 5 2 4 1 1 2 4 4 5 7 7 6 4 5
17 17 17 17 18 17 15 14 14 14 15 14 14 14 14 13 13 13 13 13 12 13 12 12 12 12 12 12 12 11 12 12 11 11 11 11 9 10 12 11 10 7 6 7 8 8 7 8 8 8 8 9 12 10 10 9 7 7 6 5 5 6 6 5 5 5 5 6 7 5 5 5 5 3 4 3 6 8 2 2 5 6 6 7 8
17 17 18 19 17 15 15 14 14 14 14 15 15 14 13 13 13 14 14 13 13 12 12 12 12 13 13 13 12 11 12 11 13 18 16 11 10 10 10 9 7 7 9 9 8 8 9 8 8 12 13 13 12 13 13 13 12 9 7 7 7 6 6 6 6 6 6 6 7 6 6 7 5 5 5 6 5 3 3 2 4 7 5 6 7
17 18 19 18 16 15 15 15 14 15 16 14 13 14 15 13 13 14 13 13 14 13 12 13 13 13 14 14 14 12 12 11 17 17 19 17 12 10 9 7 8 10 11 9 10 10 8 8 7 10 11 12 11 14 13 13 13 14 11 8 8 8 7 7 7 6 6 7 6 5 6 7 6 4 5 5 3 5 5 4 6 4 5 5 7
18 19 18 15 15 16 16 15 16 16 15 16 15 14 13 13 14 14 14 14 14 12 13 14 14 13 13 13 14 14 13 13 17 19 19 18 15 11 8 8 10 10 9 10 9 7 7 7 6 6 7 8 8 9 12 13 13 11 10 9 10 12 12 10 8 6 6 7 6 7 4 5 6 4 4 2 5 4 4 4 5 4 3 3 3
18 18 16 15 17 16 16 16 17 16 16 16 14 13 14 14 15 14 16 15 12 13 15 14 14 14 14 14 15 14 12 14 18 20 19 18 18 13 9 11 11 10 9 8 7 6 6 7 6 6 6 12 10 7 7 7 10 13 13 14 14 15 14 13 11 9 5 6 6 6 6 4 4 5 3 3 2 3 3 3 3 3 3 5 6
16 17 15 16 17 16 16 17 18 18 16 15 14 15 15 17 16 14 12 12 14 15 14 15 14 14 14 15 15 12 12 14 19 19 19 19 19 17 12 10 7 6 7 8 7 7 8 8 7 7 6 7 7 8 7 6 6 6 7 6 6 7 10 11 10 8 5 6 5 6 5 4 6 5 4 2 2 4 3 5 3 4 5 6 5
16 15 15 15 15 15 16 17 18 16 15 15 15 16 17 16 15 14 13 15 15 15 15 15 15 15 15 14 12 11 11 15 19 20 20 20 22 19 9 3 4 5 7 7 8 8 8 8 8 8 7 7 7 9 8 8 7 7 7 6 6 6 5 5 6 6 6 6 6 7 7 5 6 6 4 3 5 4 4 4 4 4 3 2 3
15 13 14 15 16 16 17 17 16 15 15 15 16 17 17 16 16 14 13 13 12 11 11 12 14 14 14 13 12 12 11 17 20 21 20 21 23 14 13 10 6 7 6 6 7 7 8 8 8 8 8 9 10 15 12 9 8 8 7 7 5 3 2 5 8 7 6 6 7 6 5 5 5 4 3 3 3 2 1 1 1 1 2 4 5
15 16 16 16 16 16 16 16 15 15 15 16 17 17 17 16 15 13 14 14 13 13 14 14 13 14 14 13 13 12 10 16 20 20 20 21 18 9 8 9 7 7 6 4 5 6 7 7 7 8 8 8 11 15 15 13 8 8 7 6 5 3 3 4 8 9 10 7 6 6 6 5 5 6 6 5 3 2 2 0 4 2 2 4 5
16 16 16 16 17 16 16 16 16 16 15 17 18 16 15 13 14 13 14 14 14 15 13 12 12 13 13 13 14 13 11 13 20 19 20 22 17 12 13 10 10 10 9 7 7 7 8 14 11 9 9 9 13 16 16 12 8 8 7 5 3 3 2 2 2 1 0 2 3 5 6 6 5 6 6 5 4 4 4 5 3 2 4 4 5
15 16 17 16 16 16 15 16 17 17 17 18 17 16 16 15 13 11 12 13 14 12 11 12 12 11 12 13 15 15 12 11 17 18 21 23 20 14 10 11 12 12 9 9 7 6 7 11 15 12 10 10 15 16 16 12 8 7 5 3 3 4 3 2 2 1 1 2 1 1 1 1 2 2 2 6 6 7 6 6 4 4 5 5 5
16 15 15 14 14 14 15 17 17 18 19 18 16 16 14 12 13 14 13 12 12 12 11 12 13 12 11 12 12 14 11 8 13 19 21 23 23 16 10 10 11 13 11 10 8 6 7 7 10 15 15 14 16 17 16 15 8 5 5 4 4 5 2 2 2 2 2 2 1 1 0 1 1 1 1 1 2 5 6 6 4 5 5 5 4
16 16 15 14 14 15 15 17 19 19 18 17 15 14 13 14 14 14 14 12 12 11 12 12 12 11 11 11 10 10 10 10 12 20 21 23 24 22 10 11 12 10 10 9 9 8 7 7 6 11 15 14 15 18 15 12 7 6 5 5 5 3 4 2 2 5 3 2 0 0 1 1 2 1 1 1 3 2 3 4 5 5 5 4 4
14 14 14 15 16 17 17 17 18 17 16 14 14 15 15 14 13 14 12 13 14 13 12 12 11 10 9 9 9 10 10 15 12 17 23 26 24 23 14 14 14 11 10 10 8 7 7 7 7 10 14 15 12 9 9 9 7 4 6 6 6 5 1 2 4 3 3 1 0 1 1 2 3 3 2 1 2 1 2 3 4 5 6 6 6
7 8 10 13 14 16 16 17 16 13 14 16 17 15 13 13 14 13 13 12 13 13 12 11 10 9 7 7 7 8 9 10 16 14 19 23 24 24 23 17 16 12 11 10 9 9 7 7 7 11 13 11 11 11 9 9 7 5 7 7 6 5 4 4 3 4 2 1 0 2 3 2 2 2 2 3 3 2 2 2 3 4 4 4 4
12 13 13 13 13 13 14 15 15 13 15 15 15 15 14 15 14 13 14 13 12 12 10 9 9 9 9 7 6 6 7 8 11 18 18 24 24 23 20 17 17 12 10 9 8 6 7 6 6 9 11 12 11 11 10 8 5 7 8 8 8 7 4 4 3 3 2 1 1 3 4 3 2 3 3 2 2 3 4 3 3 1 2 3 3
11 13 14 14 15 15 14 13 14 15 14 15 15 15 16 15 14 13 13 13 12 12 10 9 10 10 9 9 7 7 7 8 8 12 19 21 22 20 16 14 15 13 8 4 5 6 6 9 11 10 10 10 10 9 6 5 7 9 10 10 10 4 4 5 5 4 3 3 4 3 4 3 4 3 3 2 2 1 1 2 2 2 2 1 3
12 13 13 13 14 14 14 14 15 16 16 15 17 17 18 17 15 13 13 13 13 12 10 10 9 9 9 8 9 8 8 7 7 7 8 10 11 16 16 12 12 12 8 6 8 10 10 11 11 11 10 8 7 5 4 4 6 8 9 9 4 4 4 5 3 4 4 3 3 5 5 1 1 2 2 1 1 2 0 2 3 5 5 4 6
12 12 13 14 13 13 15 14 14 15 16 15 15 15 15 15 15 14 14 13 12 11 11 11 10 10 10 9 9 8 8 7 7 7 7 8 8 8 8 6 9 9 7 6 8 7 7 7 6 7 7 7 7 8 8 9 7 5 5 4 3 3 4 5 6 5 4 4 5 5 2 3 2 1 1 1 2 2 0 1 2 4 3 2 2
11 12 13 12 13 14 15 19 18 14 15 15 14 14 13 15 15 15 16 15 14 13 13 13 13 12 11 10 9 8 7 6 7 8 8 8 8 8 8 7 8 7 7 6 6 6 6 8 9 7 6 6 5 4 4 3 3 4 3 3 3 3 4 4 3 2 3 4 3 1 1 0 1 2 1 1 2 3 0 1 1 3 3 2 3
9 10 11 11 12 14 15 16 16 15 14 11 4 5 13 15 13 9 4 10 14 17 17 14 12 11 11 11 10 8 7 7 9 10 12 14 14 11 9 9 8 7 9 13 8 6 7 6 6 5 5 6 5 4 3 3 2 2 3 3 3 3 3 3 5 6 6 3 2 2 2 1 3 1 1 1 2 2 0 1 1 0 2 1 1
5 7 8 9 10 11 11 13 14 14 14 14 13 8 10 10 9 12 10 16 21 18 13 7 7 9 10 9 10 13 13 12 12 15 14 17 17 19 17 15 13 11 14 15 10 7 6 6 6 6 6 6 5 5 5 4 4 3 3 4 4 4 4 4 6 5 3 3 3 2 4 3 3 1 1 2 2 2 0 1 1 1 0 2 4
8 3 3 5 7 6 3 3 4 8 11 12 13 15 12 13 15 15 19 20 18 21 20 16 12 11 12 9 7 12 10 15 18 16 16 16 17 15 15 15 16 17 16 11 6 7 6 6 5 5 6 6 6 6 5 5 5 5 5 5 4 4 5 5 6 3 3 4 3 4 3 3 3 3 2 1 0 2 4 1 0 1 1 2 3
10 10 6 5 5 4 5 6 6 7 6 9 13 16 17 17 13 15 19 21 18 16 16 17 16 12 14 15 11 6 10 15 16 16 15 15 14 15 15 16 17 18 16 13 8 6 6 7 6 6 5 5 5 5 5 6 5 6 5 5 5 5 6 7 5 5 5 4 3 3 3 4 3 2 1 1 0 1 1 3 2 3 3 2 3
8 9 11 7 5 6 6 6 5 6 7 7 5 7 12 16 18 15 16 21 22 20 18 18 16 14 15 13 11 12 13 15 17 15 16 16 16 15 16 16 16 15 13 8 7 6 5 6 6 5 5 6 5 5 6 6 6 6 6 6 6 6 7 5 5 5 5 5 5 5 4 4 3 2 1 1 1 1 1 2 2 1 1 2 4
5 4 5 7 9 9 9 8 7 6 4 11 10 9 10 10 12 14 16 15 15 16 19 18 16 17 15 14 15 14 15 16 17 16 16 16 17 17 15 10 11 12 10 8 7 7 6 6 5 5 5 5 6 6 6 6 6 5 5 5 5 4 3 3 5 4 5 6 6 5 4 4 3 2 1 1 1 1 1 2 1 1 3 3 4
5 7 11 8 7 8 7 6 3 3 5 8 10 9 11 9 10 11 11 13 13 12 10 9 15 16 11 10 12 15 15 15 16 16 16 16 17 18 17 12 7 2 1 1 5 6 7 6 6 6 6 7 6 6 7 5 5 5 5 5 5 5 5 5 5 5 6 5 5 5 4 4 3 2 2 2 1 1 1 1 2 1 2 3 3
7 8 8 9 8 7 6 5 6 8 8 8 7 9 9 9 8 7 9 10 11 10 10 10 9 11 17 14 13 14 15 16 16 16 17 18 18 19 11 8 8 7 6 5 6 6 6 6 6 6 6 5 4 4 5 5 5 5 6 6 6 6 6 6 6 5 4 5 5 5 4 3 3 3 2 1 2 2 2 2 3 3 2 2 3
6 6 9 8 7 5 5 7 8 8 9 9 9 10 10 10 9 9 10 10 9 8 12 10 10 11 11 9 11 14 14 14 13 14 16 18 18 11 8 10 8 7 6 6 6 6 6 6 6 6 6 6 6 6 6 5 6 6 6 6 6 6 6 6 6 5 6 4 3 3 3 3 3 3 5 4 2 1 1 2 2 1 1 2 2
6 4 5 5 5 7 8 9 9 12 10 9 9 9 9 9 9 9 9 9 10 11 10 9 9 12 10 5 5 6 10 13 16 12 8 6 4 4 6 7 8 9 8 7 7 7 7 6 6 7 7 7 7 6 6 6 6 6 6 5 5 6 6 6 4 4 4 3 4 3 3 3 4 3 3 3 2 1 1 1 0 2 3 3 2
4 8 11 11 9 8 8 7 8 8 8 8 7 7 8 8 9 9 9 8 9 9 9 8 9 7 7 7 7 9 12 8 8 7 7 6 4 4 5 6 6 6 6 7 7 6 7 7 6 6 7 6 6 6 6 6 6 6 6 6 6 4 6 4 5 4 5 4 4 4 4 4 3 4 4 4 3 3 2 1 0 1 1 3 4
4 5 8 10 7 8 7 7 7 8 7 7 7 7 7 7 7 8 8 9 9 8 7 8 7 6 6 6 8 8 10 8 7 7 7 6 5 4 5 6 6 7 7 6 6 6 7 7 7 7 6 6 6 6 6 6 6 6 6 6 6 6 6 6 5 5 6 6 5 5 5 6 6 5 3 4 3 3 1 0 1 1 1 3 4
5 6 6 6 7 7 7 7 7 7 7 7 6 7 7 8 7 7 8 9 8 8 8 7 7 6 6 7 7 6 8 8 7 7 7 7 5 5 5 5 5 6 6 7 6 6 7 7 7 7 6 6 6 6 6 6 6 6 6 6 6 6 6 5 5 6 6 5 5 6 6 5 5 5 4 3 2 2 1 1 0 1 1 2 3
5 5 6 5 6 6 6 6 6 7 6 5 6 6 7 7 7 7 8 8 7 8 8 7 6 7 7 12 7 5 7 6 6 7 6 5 5 5 4 4 4 6 7 7 7 8 7 7 7 7 7 6 7 6 6 6 6 6 6 6 7 7 7 7 7 6 6 6 6 5 5 5 4 3 3 4 2 1 0 0 0 1 2 3 3
6 5 5 5 5 4 5 5 6 7 6 6 6 6 7 7 6 6 7 6 7 6 7 8 6 6 6 8 7 6 6 6 6 7 7 6 6 5 5 5 5 5 5 6 6 8 8 8 7 7 7 8 8 8 8 7 6 6 7 7 7 7 7 7 5 5 5 5 6 4 4 5 4 4 4 3 2 1 1 0 0 1 1 2 3
5 5 6 5 5 5 4 5 5 5 6 7 7 6 6 6 6 6 7 7 7 6 7 8 8 7 7 6 4 5 6 7 7 7 7 6 6 6 5 5 5 5 5 5 6 6 7 7 7 6 5 5 5 4 5 6 6 6 6 6 6 5 6 5 6 6 7 6 6 6 6 4 4 4 3 2 3 1 0 0 0 1 2 3 3
5 5 5 5 5 5 5 4 5 5 6 6 5 6 5 5 5 5 5 5 5 4 5 5 6 7 7 6 5 5 6 6 6 6 6 6 6 6 5 5 5 5 5 5 6 6 7 7 7 7 6 4 4 5 5 5 5 6 6 6 6 6 6 7 7 7 7 7 7 5 5 6 4 4 3 3 3 2 1 1 1 1 2 3 3
5 5 5 5 5 5 4 5 5 5 6 5 5 5 5 5 4 4 4 5 5 5 5 5 6 7 7 7 6 5 5 5 6 5 5 5 6 6 5 5 5 6 6 6 6 6 7 7 7 7 7 6 5 5 5 5 5 5 6 6 7 7 7 6 5 6 6 6 7 6 5 4 4 4 5 4 3 2 2 1 1 1 1 3 3
6 5 5 3 4 4 5 6 6 6 5 5 6 6 6 5 5 5 1 3 7 6 6 7 7 7 7 7 7 6 5 5 5 6 6 6 5 5 5 5 6 6 6 6 6 7 7 7 6 7 7 6 6 6 6 4 4 4 3 3 3 3 4 5 6 6 6 5 6 5 5 5 4 3 3 2 2 1 1 1 1 1 1 2 3
4 4 4 3 3 3 4 5 7 7 4 1 1 5 5 7 5 5 5 5 4 5 6 5 6 6 6 6 6 5 5 5 5 5 6 6 5 6 6 6 7 7 7 6 5 6 6 6 6 7 7 7 7 6 6 5 4 3 3 3 4 5 6 5 4 4 4 4 4 5 5 5 4 4 3 3 3 2 2 1 1 1 1 3 2
5 5 6 5 4 4 3 3 3 3 4 3 0 1 2 3 5 6 6 7 7 6 6 7 6 5 5 6 6 6 5 5 5 4 6 6 6 5 6 6 6 6 7 6 6 6 6 6 7 7 7 7 7 7 6 5 5 4 4 4 6 9 10 9 5 5 6 6 4 3 3 4 4 4 3 3 3 3 2 1 1 2 2 3 2
5 5 5 4 4 5 5 5 5 4 4 4 4 3 3 3 2 3 2 2 2 1 4 6 6 6 6 6 7 6 6 5 5 4 5 6 6 6 6 7 7 7 7 7 7 6 7 6 6 6 6 7 7 7 7 7 6 6 5 6 9 11 11 10 8 7 6 4 5 5 5 4 3 3 3 3 3 3 2 2 2 2 2 3 3
4 4 4 4 4 5 5 5 5 4 4 4 3 3 2 2 3 4 5 4 5 4 5 4 1 5 4 6 6 6 6 5 5 5 5 6 6 6 7 8 8 7 6 6 7 7 7 6 6 7 7 7 7 7 7 7 7 7 9 11 12 12 11 10 7 8 9 6 4 4 4 5 4 3 3 3 3 3 3 3 2 2 2 2 2
Wind_Direction
195 198 193 198 196 195 195 195 197 197 196 197 199 203 204 203 204 205 194 201 192 193 196 197 196 197 198 200 195 190 195 197 195 195 197 201 200 197 185 185 188 197 197 208 204 188 192 196 195 198 173 177 192 190 188 189 176 176 163 158 164 163 150 163 198 260 277 240 224 242 283 311 309 232 267 284 296 288 271 251 256 255 254 256 260
195 194 195 197 198 196 196 196 196 196 198 198 202 202 204 204 201 197 203 204 193 196 196 196 197 196 200 202 196 194 197 200 196 194 199 202 204 198 195 187 191 194 196 207 201 195 187 202 207 198 180 188 189 191 195 182 176 167 178 175 178 185 192 157 201 213 271 240 268 280 270 200 238 223 217 264 275 274 273 269 264 239 241 251 255
194 193 195 196 198 197 195 196 194 196 198 200 204 204 204 203 196 199 204 202 199 200 197 196 195 197 202 202 196 198 199 199 199 198 202 201 201 202 197 188 187 191 199 205 197 190 195 202 209 197 177 185 194 203 194 195 182 184 197 190 190 196 189 192 168 221 257 273 221 240 231 210 208 256 236 226 240 246 265 259 227 218 226 231 236
193 195 197 198 196 196 198 195 195 197 200 202 204 205 203 201 196 200 201 198 199 203 199 197 194 198 203 203 199 199 198 199 200 203 206 203 203 200 191 189 192 197 199 199 194 192 200 201 210 199 184 189 196 196 196 194 188 196 200 203 198 198 198 193 203 203 225 254 274 220 245 227 267 248 249 243 234 246 226 264 275 262 237 209 214
194 196 196 196 196 199 199 197 198 199 201 201 204 203 203 201 198 200 196 199 200 196 200 196 198 200 204 204 200 200 200 198 201 206 209 208 204 197 190 192 199 201 200 198 193 193 198 204 200 192 187 199 199 192 186 189 193 189 201 203 199 205 199 197 208 207 213 232 262 268 253 265 249 272 256 264 269 252 242 239 257 267 280 269 255
196 193 194 196 199 199 199 199 200 200 200 203 203 202 201 200 200 201 197 200 198 198 197 197 200 204 208 206 202 202 200 200 203 206 208 206 202 197 191 196 204 205 204 197 194 192 197 202 193 190 193 201 197 193 187 194 189 196 204 205 205 200 206 214 208 208 214 233 233 273 263 245 276 260 252 229 249 275 288 285 293 283 288 300 289
192 192 194 198 199 200 200 201 199 200 202 203 202 201 202 200 199 201 198 200 199 200 199 200 204 205 208 206 206 203 202 203 206 207 208 204 197 194 195 201 207 211 208 196 198 198 199 197 195 194 197 198 193 192 192 195 193 203 202 202 203 196 210 220 212 212 217 233 245 238 258 253 228 263 276 261 264 250 261 291 291 284 294 272 284
192 193 193 197 201 201 201 199 198 201 202 202 203 202 201 200 200 199 197 201 203 202 200 201 203 204 206 208 209 204 204 207 207 206 207 201 190 195 202 204 208 210 199 198 201 203 202 201 201 199 197 195 194 193 185 195 193 203 207 199 196 197 214 222 216 217 227 233 237 244 233 257 257 254 354 33 316 297 243 228 255 275 281 271 257
191 193 195 200 203 200 196 196 199 200 201 202 203 203 202 201 199 198 199 202 203 204 202 200 200 203 207 208 209 205 207 210 206 202 203 198 190 198 205 207 204 196 199 207 206 203 203 204 201 199 201 196 194 190 192 188 182 200 210 194 201 202 219 218 214 214 233 236 252 240 253 252 244 251 256 221 219 239 255 166 241 261 273 285 275
191 193 197 201 200 194 193 194 197 199 201 203 203 201 201 200 200 200 200 201 202 201 201 201 202 203 205 209 209 208 212 212 207 200 199 193 191 202 204 205 192 192 203 209 209 204 205 201 203 201 200 198 196 199 199 196 196 196 198 193 199 201 211 213 212 215 223 236 242 240 245 252 243 218 234 237 233 263 279 180 225 258 269 269 281
193 196 201 200 194 190 191 195 195 199 203 202 201 200 200 199 202 202 201 200 201 200 199 201 203 205 207 208 209 212 214 212 202 197 200 190 188 202 198 186 190 202 207 203 210 208 206 203 202 201 196 200 204 204 205 202 205 212 209 191 191 191 199 209 219 205 213 229 242 232 234 256 260 226 227 249 224 218 229 214 232 247 249 263 283
195 200 202 193 189 190 193 192 196 201 199 202 200 198 198 200 202 203 201 202 202 198 201 203 202 204 208 211 213 214 216 206 194 197 195 187 189 198 184 183 201 207 204 207 212 207 203 202 200 196 194 195 196 204 208 208 209 216 215 209 205 207 206 204 211 207 207 222 236 238 230 236 261 249 242 222 241 234 226 219 225 222 234 246 248
198 201 197 190 192 192 191 191 198 200 201 200 196 195 198 201 203 202 204 203 197 201 205 202 205 205 207 211 216 215 215 196 194 194 190 182 187 190 183 200 199 203 200 205 209 200 193 191 197 197 201 197 196 196 191 196 202 205 211 218 222 222 223 225 220 216 185 200 222 245 224 221 243 252 216 213 193 235 250 225 206 197 221 253 261
199 201 194 194 194 192 190 194 198 201 198 195 193 196 199 204 204 202 201 197 202 206 204 205 207 206 207 212 215 213 212 195 193 189 186 175 177 189 205 194 187 189 198 202 198 194 190 189 191 198 198 198 184 179 174 169 168 175 195 203 210 219 217 220 227 237 223 211 206 233 241 183 233 248 237 170 184 246 237 248 233 268 257 247 248
199 198 196 197 194 192 193 196 200 200 195 193 194 200 202 204 202 200 198 200 203 205 202 205 209 209 210 211 212 210 215 191 188 189 183 169 177 191 209 174 160 189 206 199 197 193 189 189 192 196 192 191 184 176 169 171 170 179 187 204 212 212 194 175 184 197 202 208 215 228 248 234 233 247 253 215 212 224 214 227 236 241 259 283 295
200 195 198 197 196 195 195 198 200 197 193 194 198 203 203 202 201 199 200 204 206 205 207 210 211 211 212 209 209 213 209 186 189 189 178 170 178 183 199 208 189 213 214 207 201 191 189 190 193 198 194 192 191 179 174 170 175 183 198 216 234 230 194 190 203 204 197 194 200 214 231 237 234 236 231 206 210 207 229 307 342 254 271 275 274
199 197 199 197 197 196 196 197 197 195 195 197 202 204 203 203 202 196 202 204 202 203 207 207 208 209 210 207 207 212 209 193 189 187 173 165 171 170 190 207 221 239 243 237 211 198 190 193 194 198 192 193 189 182 179 172 180 188 201 218 224 234 216 197 211 213 217 217 218 231 247 262 261 258 260 247 216 167 126 4 272 191 215 271 271
201 198 200 198 196 195 194 193 194 196 196 202 204 205 204 203 203 196 201 201 205 207 206 207 208 210 206 206 204 208 211 193 190 183 161 163 155 169 199 186 206 232 244 245 230 206 200 196 193 191 189 194 185 185 183 177 184 194 202 205 224 253 258 179 167 190 266 237 230 239 245 252 260 267 263 255 181 173 165 224 228 162 225 232 265
202 202 204 199 196 194 192 192 195 196 199 204 202 201 201 202 200 196 204 205 210 207 205 208 210 207 206 205 202 203 209 191 190 170 161 163 161 180 181 190 197 218 216 222 224 210 208 208 197 192 191 190 184 188 187 183 190 190 180 169 218 247 232 180 176 162 115 123 120 104 62 246 211 208 232 229 198 193 197 218 212 183 229 242 249
203 204 203 199 196 193 194 196 198 198 203 203 199 200 197 195 195 198 202 203 206 205 204 206 207 206 201 203 201 203 197 177 180 169 163 167 164 168 185 180 204 214 207 204 208 211 205 206 202 193 195 187 187 189 191 188 182 165 150 172 201 241 197 168 175 141 125 128 154 102 269 279 290 270 268 268 215 193 199 211 202 191 208 230 234
201 202 201 196 196 196 196 198 199 202 202 199 195 194 193 196 194 196 199 201 204 204 202 204 206 206 200 199 198 194 185 173 174 172 162 167 170 163 178 196 212 208 197 200 203 199 196 199 199 195 197 190 188 195 189 191 173 151 164 182 196 183 151 134 165 134 131 129 106 28 297 301 317 321 309 297 276 254 203 204 200 190 192 206 232
201 200 196 195 197 198 199 202 202 202 199 191 189 197 196 192 192 195 195 197 200 201 200 201 203 201 193 189 189 187 173 169 167 175 165 172 172 170 172 200 210 193 190 201 195 192 194 187 196 198 197 196 189 164 165 176 175 152 177 170 143 144 161 156 133 108 107 92 84 327 311 325 322 318 308 271 246 232 211 209 199 199 205 207 208
210 210 207 205 203 202 201 200 199 199 195 193 193 193 187 189 193 192 193 196 198 201 200 197 194 188 177 181 179 174 164 171 166 163 166 170 178 177 181 194 190 188 187 191 193 196 182 187 192 190 188 173 149 158 157 160 156 179 167 156 156 166 147 120 127 113 112 114 122 276 280 263 281 295 292 295 299 310 296 255 227 211 224 229 235
198 197 198 202 205 206 206 204 200 197 194 191 192 188 186 190 189 189 190 189 192 196 197 189 183 179 176 169 165 155 156 157 173 168 166 177 183 187 185 180 173 187 182 189 185 169 167 183 180 165 154 154 153 156 164 167 181 172 162 161 154 152 119 123 117 130 123 136 229 256 265 248 221 258 262 261 276 297 291 275 275 254 241 265 264
198 198 199 200 200 203 201 198 197 197 194 188 188 189 187 184 189 193 187 186 187 190 187 179 182 179 167 168 160 150 153 159 163 180 175 177 183 185 185 176 176 160 165 164 147 162 153 136 129 130 129 124 123 123 128 149 146 154 151 148 150 124 134 138 141 128 156 213 231 243 249 247 225 240 259 275 296 301 294 310 315 310 308 276 281
205 206 205 202 202 198 196 196 195 195 192 191 192 189 184 183 189 190 186 186 182 179 172 173 173 167 166 163 162 160 158 156 155 153 158 164 173 184 185 173 166 165 140 119 127 119 121 121 117 113 113 123 128 135 139 139 134 128 138 148 134 140 141 141 147 156 199 219 217 226 233 233 259 256 272 279 304 280 346 313 335 317 333 344 349
211 211 206 201 197 192 192 193 195 195 192 192 192 190 186 183 183 181 184 183 179 172 164 167 163 162 165 163 161 155 157 155 149 147 150 156 164 166 161 148 145 125 107 110 102 103 105 117 119 114 114 119 116 123 122 129 126 134 149 150 140 151 158 168 164 176 199 211 222 232 238 244 266 311 291 291 279 288 151 259 284 273 300 345 353
210 211 207 199 193 189 191 193 192 193 192 187 185 186 188 184 181 180 184 182 175 171 167 166 166 167 162 155 150 152 152 146 150 156 160 158 155 155 161 147 155 157 131 111 113 123 118 109 108 110 115 108 109 96 103 117 138 145 147 150 159 176 180 171 155 170 210 201 203 198 251 216 287 267 263 256 244 273 260 235 206 296 326 12 354
213 202 197 195 198 195 190 187 188 186 182 172 127 156 182 183 177 171 156 183 177 174 173 164 162 156 149 148 145 145 145 165 191 182 171 165 158 156 163 166 159 154 144 133 116 105 109 113 110 122 136 130 121 125 139 145 156 150 159 165 171 154 142 144 179 206 202 178 206 220 241 220 256 268 239 274 275 279 244 326 352 267 326 65 255
199 196 199 199 195 192 196 195 187 176 164 150 139 97 44 74 131 145 130 103 90 76 80 116 142 138 138 147 149 158 181 195 160 154 162 164 162 163 167 159 151 134 139 139 130 130 136 140 148 146 144 140 150 167 184 191 180 189 202 191 170 159 168 188 209 194 162 178 195 199 233 223 243 211 162 227 279 285 336 77 317 5 321 310 302
309 292 230 210 183 174 151 146 160 157 158 149 133 121 111 52 56 98 120 116 126 136 146 141 147 172 157 138 65 50 90 116 142 155 155 162 161 150 138 135 130 132 135 122 115 136 144 148 159 163 161 165 174 187 190 187 199 197 202 192 176 176 186 198 202 164 161 185 205 217 221 199 202 183 181 192 225 315 339 20 72 235 235 256 286
342 319 282 178 148 111 112 109 110 136 145 158 148 142 129 117 80 57 93 109 106 108 117 130 136 134 128 124 119 64 106 131 140 149 154 146 137 134 134 134 138 145 155 139 134 153 157 161 165 181 170 174 197 192 187 198 200 204 189 180 195 190 182 206 178 164 179 189 193 191 180 173 167 169 165 156 124 320 303 307 328 338 326 321 278
8 3 338 324 58 67 65 69 91 108 123 103 104 118 127 124 113 108 70 81 91 95 90 86 86 94 100 100 103 135 146 146 145 144 146 141 136 137 136 137 142 145 130 132 150 156 169 170 179 181 176 193 191 195 199 200 201 200 194 191 193 189 198 191 156 168 175 174 164 167 163 159 160 152 142 142 149 249 254 276 293 293 253 304 303
62 77 25 352 48 62 53 39 30 49 98 117 102 91 87 93 109 106 113 108 80 65 64 67 80 88 75 88 106 110 124 135 139 140 138 137 133 128 123 124 135 154 155 162 158 174 172 177 181 178 185 193 194 195 201 207 206 193 184 187 176 161 160 149 147 150 146 153 155 160 158 157 151 153 182 170 203 212 246 255 262 317 317 293 291
53 49 54 50 50 57 48 45 52 75 65 70 89 94 93 86 81 93 103 107 113 111 109 60 44 49 73 79 100 118 126 127 129 133 131 130 129 125 114 114 121 140 172 150 165 162 171 177 181 185 185 193 198 194 203 198 181 174 168 155 139 130 128 135 138 142 143 143 150 166 172 171 173 172 177 204 200 205 244 281 287 247 268 297 305
69 69 43 38 40 46 42 40 46 47 44 45 61 73 77 80 83 82 80 91 101 103 78 62 68 62 67 67 90 111 118 125 131 133 137 136 138 133 132 143 132 156 172 173 177 173 166 168 168 178 173 170 158 165 169 165 169 158 154 145 147 149 146 143 142 144 158 162 175 173 169 167 155 171 160 182 206 213 231 242 267 277 267 275 285
17 58 78 58 38 29 48 60 65 65 66 60 64 67 65 71 74 82 93 95 85 76 99 109 99 76 66 64 77 82 89 101 113 129 142 149 155 149 146 152 160 158 171 174 168 157 158 171 162 152 154 150 158 155 153 154 154 148 146 142 141 142 151 152 158 158 160 168 163 157 172 175 179 182 172 180 207 213 232 242 247 275 291 305 320
10 17 75 105 113 77 64 58 53 55 55 61 65 75 83 83 87 89 88 88 104 106 110 105 101 96 108 96 87 101 103 100 96 85 84 112 149 128 140 156 156 164 169 170 165 161 160 152 154 150 157 147 145 149 143 144 143 137 134 136 143 155 156 156 158 155 162 162 169 189 186 196 199 192 174 159 179 199 231 234 255 317 321 320 332
51 53 59 61 62 72 77 75 69 73 73 69 72 82 90 96 94 96 97 97 98 97 96 93 100 94 113 126 115 120 107 108 131 143 150 167 165 143 148 154 156 153 153 157 158 150 147 152 155 144 144 145 143 152 146 145 137 136 141 140 148 146 148 152 157 172 175 191 202 196 185 202 200 184 177 161 184 198 208 229 230 249 292 307 302
95 76 66 75 75 74 80 79 82 80 80 81 78 82 88 89 100 112 117 111 101 105 107 111 109 102 117 125 129 133 121 128 142 150 157 164 169 167 161 157 162 156 154 155 154 150 146 148 150 148 148 147 147 150 150 147 149 149 147 152 154 166 180 174 179 178 197 208 202 192 188 195 186 174 179 184 191 184 179 219 253 258 261 274 288
89 85 90 90 100 92 85 89 93 97 102 104 107 108 110 110 107 106 102 103 110 112 111 112 115 118 127 129 127 120 137 147 145 153 164 167 168 168 174 172 159 157 155 155 154 152 150 149 154 152 149 151 152 151 154 150 149 146 154 162 162 172 179 190 190 196 203 196 190 188 193 178 161 152 181 208 183 164 194 192 217 248 278 285 284
78 86 87 88 94 100 100 95 99 103 99 97 97 102 106 107 110 111 112 117 117 120 117 111 113 126 131 133 134 103 115 127 136 143 151 161 167 175 175 168 163 157 159 158 155 151 151 150 152 149 153 159 161 161 155 155 154 157 161 165 175 181 184 196 199 199 193 194 194 188 174 165 160 176 167 149 164 173 182 170 229 289 306 304 308
69 67 69 75 67 76 100 109 107 104 103 99 94 95 98 100 101 102 101 103 112 114 112 114 116 123 132 146 141 128 125 140 149 152 160 167 175 174 172 175 168 164 162 161 157 154 151 151 152 161 166 172 172 169 166 167 165 165 168 174 179 184 194 197 190 187 181 181 179 170 154 153 158 160 158 164 172 176 181 226 279 311 302 301 306
55 65 68 61 67 65 59 86 94 102 108 106 99 92 96 96 99 106 117 121 124 126 127 134 138 140 137 142 130 130 143 152 156 162 164 162 171 177 180 169 154 140 139 147 153 145 143 144 154 162 162 163 157 144 143 150 154 160 170 174 179 185 185 182 180 179 175 171 164 155 157 161 164 160 162 164 163 160 190 209 265 308 314 310 311
68 62 65 65 60 69 62 56 87 97 98 101 96 103 105 111 117 116 103 105 113 116 125 131 137 140 142 149 158 159 159 158 157 154 160 163 171 180 169 158 154 145 138 142 146 143 142 144 147 148 149 142 139 137 142 149 152 156 159 161 166 177 185 191 194 181 165 157 159 157 161 158 162 169 175 186 181 174 181 207 240 300 317 308 313
66 67 59 56 58 63 67 63 61 70 76 83 98 89 88 83 79 92 118 126 128 134 133 143 145 151 153 159 160 161 156 154 152 154 154 161 168 166 158 155 149 148 150 150 149 151 150 149 152 152 150 149 144 142 141 146 153 160 165 170 175 189 193 182 154 147 159 156 156 160 162 162 177 188 195 184 186 168 190 222 221 225 234 271 285
60 53 45 58 88 91 83 79 67 59 66 88 104 115 108 96 109 110 110 184 152 149 152 158 156 157 158 159 164 167 163 158 159 157 163 164 157 144 139 140 142 144 148 152 153 153 156 157 153 148 146 147 143 141 147 155 161 164 161 160 155 146 148 154 161 158 164 168 154 147 165 174 190 195 196 149 162 188 193 213 223 268 274 272 279
70 83 95 43 10 80 108 115 113 107 87 22 56 125 136 136 126 152 151 151 161 157 154 157 156 156 154 160 162 161 161 167 168 153 146 147 149 143 141 146 152 153 150 152 160 159 157 155 149 144 144 144 145 153 157 163 160 155 154 163 161 162 162 156 156 166 164 154 160 164 168 178 183 180 182 169 181 186 198 235 236 237 252 278 285
40 34 28 32 16 20 18 36 70 90 109 108 126 109 121 160 156 152 164 178 171 167 160 162 157 155 160 158 156 157 162 165 160 146 133 141 148 150 148 148 144 147 149 159 167 166 161 157 157 154 152 154 156 157 161 160 165 169 177 182 181 172 166 164 164 177 178 166 158 151 150 156 171 183 182 184 195 197 212 235 244 264 277 280 284
69 62 62 51 41 34 36 51 54 60 75 102 133 142 120 99 68 27 19 54 59 104 168 158 156 160 155 152 153 160 161 164 164 149 137 141 148 151 150 149 152 160 167 170 172 171 170 163 156 155 158 160 162 162 164 165 172 180 185 189 186 174 176 179 182 177 169 168 165 170 164 169 174 178 186 191 191 191 208 236 235 245 264 281 278
65 73 79 85 91 89 84 63 47 60 74 73 70 83 93 104 105 117 118 118 107 74 21 0 46 120 154 155 158 154 165 167 159 147 151 149 152 154 155 159 165 172 172 170 171 176 173 163 161 164 167 167 168 173 171 174 178 184 189 188 182 179 181 180 184 192 182 171 165 155 156 163 167 175 194 199 184 183 223 236 247 256 269 267 276